Glasgow, MT

6:40 AM MDT on March 29, 2017 (GMT -0600)
Wokal-Glasgow International

Weather History for KGGW - April, 2013

Change the Weather History Date:

Monday, April 22, 2013

  Actual Average Record
Temperature  
Mean Temperature 30 °F 47 °F  
Max Temperature 41 °F 61 °F 85 °F (1906)
Min Temperature 18 °F 34 °F 9 °F (1967)
Degree Days  
Heating Degree Days 35 18  
Month to date heating degree days 663 473  
Since 1 July heating degree days 8126 7877  
Cooling Degree Days 0 0  
Month to date cooling degree days 0 0  
Year to date cooling degree days 0 0  
Moisture  
Dew Point 15 °F    
Average Humidity 62    
Maximum Humidity 91    
Minimum Humidity 33    
Precipitation  
Precipitation 0.00 in 0.03 in 0.18 in (1935)
Month to date precipitation 1.12 0.55  
Year to date precipitation 2.78 1.60  
Snow  
Snow 0.00 in 0.10 in 0.30 in (1963)
Month to date snowfall 11.7 1.6  
Since 1 July snowfall 62.3 33.3  
Snow Depth 0.00 in    
Sea Level Pressure  
Sea Level Pressure 30.47 in    
Wind  
Wind Speed 7 mph (NW)    
Max Wind Speed 14 mph    
Max Gust Speed 21 mph    
Visibility 10 miles    
Events      
T = Trace of Precipitation, MM = Missing Value Source: NWS Daily Summary

Daily Weather History Graph

Daily Weather History Graph

Search for Another Location

Airport or City:

Trip Planner

Search our weather history database for the weather conditions in past years. The results will help you decide how hot, cold, wet, or windy it might be!

Date:

Astronomy

Apr. 22, 2013 Rise Set
Actual Time 6:02 AM MDT 8:07 PM MDT
Civil Twilight 5:29 AM MDT 8:41 PM MDT
Nautical Twilight 4:47 AM MDT 9:23 PM MDT
Astronomical Twilight 4:01 AM MDT 10:10 PM MDT
Moon 4:46 PM MDT (4/22) 4:14 AM MDT (4/22)
Length of Visible Light 15h 12m
Length of Day
14h 04m
Waxing Gibbous, 88% of the Moon is Illuminated
Apr 22
Waxing Gibbous
Apr 25
Full
May 2
Last Quarter
May 9
New
May 17
First Quarter

Hourly Weather History & Observations

Time (MDT) Temp. Windchill Dew Point Humidity Pressure Visibility Wind Dir Wind Speed Gust Speed Precip Events Conditions
12:53 AM 24.1 °F 17.0 °F 18.0 °F 77% 30.43 in 10.0 mi North 5.8 mph - N/A   Clear
1:53 AM 23.0 °F 18.4 °F 17.1 °F 78% 30.43 in 10.0 mi NNW 3.5 mph - N/A   Clear
2:53 AM 21.9 °F - 17.1 °F 82% 30.44 in 10.0 mi Calm Calm - N/A   Clear
3:53 AM 19.9 °F 14.9 °F 16.0 °F 85% 30.46 in 10.0 mi NNW 3.5 mph - N/A   Clear
4:53 AM 19.0 °F 13.9 °F 15.1 °F 85% 30.48 in 10.0 mi NNW 3.5 mph - N/A   Clear
5:53 AM 19.0 °F 13.9 °F 15.1 °F 85% 30.49 in 10.0 mi NW 3.5 mph - N/A   Clear
6:53 AM 19.9 °F 13.4 °F 17.1 °F 89% 30.52 in 10.0 mi WNW 4.6 mph - N/A   Clear
7:53 AM 23.0 °F 14.7 °F 18.0 °F 81% 30.54 in 10.0 mi NW 6.9 mph - N/A   Clear
8:53 AM 27.0 °F 18.7 °F 17.1 °F 66% 30.54 in 10.0 mi NW 8.1 mph - N/A   Clear
9:43 AM 26.6 °F 16.8 °F 15.8 °F 64% 30.45 in 10.0 mi NNW 10.4 mph - N/A   Mostly Cloudy
9:53 AM 28.9 °F 19.8 °F 16.0 °F 58% 30.55 in 10.0 mi WNW 10.4 mph 17.3 mph N/A   Overcast
10:16 AM 30.2 °F 24.3 °F 15.8 °F 55% 30.45 in 10.0 mi NW 5.8 mph - N/A   Mostly Cloudy
10:53 AM 32.0 °F 25.6 °F 14.0 °F 48% 30.55 in 10.0 mi NW 6.9 mph - N/A   Overcast
11:53 AM 33.1 °F 24.4 °F 12.9 °F 43% 30.55 in 10.0 mi NNW 11.5 mph 18.4 mph N/A   Mostly Cloudy
12:53 PM 34.0 °F 26.0 °F 12.0 °F 40% 30.54 in 10.0 mi NNW 10.4 mph 17.3 mph N/A   Mostly Cloudy
1:53 PM 36.0 °F 29.6 °F 12.9 °F 39% 30.52 in 10.0 mi WNW 8.1 mph - N/A   Overcast
2:53 PM 37.0 °F 32.4 °F 12.0 °F 36% 30.50 in 10.0 mi North 5.8 mph - N/A   Overcast
3:53 PM 39.9 °F 32.5 °F 12.9 °F 33% 30.48 in 10.0 mi WNW 12.7 mph 18.4 mph N/A   Overcast
4:53 PM 37.9 °F 34.4 °F 12.9 °F 36% 30.46 in 10.0 mi West 4.6 mph - N/A   Scattered Clouds
5:53 PM 39.9 °F 35.8 °F 12.0 °F 32% 30.45 in 10.0 mi NW 5.8 mph - N/A   Overcast
6:53 PM 39.9 °F 34.5 °F 12.9 °F 33% 30.43 in 10.0 mi NW 8.1 mph - N/A   Mostly Cloudy
7:53 PM 37.0 °F 31.6 °F 15.1 °F 41% 30.43 in 10.0 mi West 6.9 mph - N/A   Mostly Cloudy
8:53 PM 34.0 °F 29.8 °F 17.1 °F 50% 30.43 in 10.0 mi SW 4.6 mph - N/A   Clear
9:53 PM 32.0 °F 25.6 °F 18.0 °F 56% 30.43 in 10.0 mi SW 6.9 mph - N/A   Clear
10:53 PM 30.9 °F 25.2 °F 19.0 °F 61% 30.41 in 10.0 mi SW 5.8 mph - N/A   Clear
11:53 PM 28.9 °F 21.9 °F 19.9 °F 69% 30.39 in 10.0 mi SW 6.9 mph - N/A   Clear